Find Starlink 32550

NORAD ID: 62131 Int'l Des: 2024-222 Owner: SPXS Country: US Constellation: starlink operational
LEOCIRCULAR

Current View

Loading 3D Globe...

About Starlink 32550

Starlink 32550 (NORAD 62131) is a starlink constellation satellite (v2 mini) launched Nov 27, 2024 by SPXS of US. It operates in LEO, CIRCULAR orbit with a mass of 730.00 kg.

About Starlink 32550

Description loading...

Upcoming Passes

Passes for default location (London). Set your location on the main map for personalized predictions.

Altitude History

Loading altitude history...

Two-Line Element Set

1 62131U 24222T 26171.26475830 .00019232 00000-0 70627-3 0 9999
2 62131 43.0006 277.1381 0002303 281.6900 78.3694 15.27593305 88486
Epoch: Jun 20, 2026 • Age: 25 hours

Current Status

Altitude 494.7 km
Velocity 7.62 km/s
Sub-Earth Point -43.15°S, 167.13°E
Launch Date Nov 27, 2024
Age 1.5 years
Type internet

Technical Details

Classification Payload
Mass 730.00 kg
Dry Mass 700.00 kg
Total Mass 730.00 kg
Length 0.30 m
Diameter 4.10 m
Span 29.00 m
Shape Box + pan
Manufacturer SPXS
Bus Type Starlink V2M
Phase Status In Orbit
Owner/State SPXS/US

Most Searched